IZ2MHJ-3 Weather Reports


time (UTC)temp
F
wind
direction
speed
knots
gust
knots
rain 1hr
in
rain 24hr
in
rain mn
in
humidity
%
barometer
mb
20260507064457 60 0.0 0.0 0.00 0.00 0.00 73 1014.7
20260507062457 57 0.0 0.0 0.00 0.00 0.00 81 1014.7
20260507060456 56 0.0 0.0 0.00 0.00 0.00 83 1014.7
20260507054456 56 0.0 0.0 0.00 0.00 0.00 82 1014.6
20260507052455 54 0.0 0.0 0.00 0.00 0.00 85 1014.5
20260507050455 54 0.0 0.0 0.00 0.00 0.00 85 1014.1
20260507044455 54 0.0 0.0 0.00 0.00 0.00 86 1013.9
20260507042454 53 0.0 0.0 0.00 0.00 0.00 87 1013.8
20260507040454 53 0.0 0.0 0.00 0.00 0.00 87 1013.6
20260507034454 53 0.0 0.0 0.00 0.00 0.00 88 1013.6
20260507032454 53 0.0 0.0 0.00 0.00 0.00 88 1013.5
20260507030454 53 0.0 0.0 0.00 0.00 0.00 88 1013.7
20260507024453 53 0.0 0.0 0.00 0.00 0.00 87 1013.6
20260507022453 54 0.0 0.0 0.00 0.00 0.00 87 1013.6
20260507020452 54 0.0 0.0 0.00 0.00 0.00 87 1013.6
20260507014452 54 0.0 0.0 0.00 0.00 0.00 87 1013.4
20260507012452 54 0.0 0.0 0.00 0.00 0.00 87 1013.2
20260507010451 54 0.0 0.0 0.00 0.00 0.00 86 1013.3
20260507004451 54 0.0 0.0 0.00 0.00 0.00 85 1013.2
20260507002451 54 0.0 0.0 0.00 0.00 0.00 84 1013.3
20260507000451 54 0.0 0.0 0.00 0.00 0.00 83 1013.3
20260506234450 54 0.0 0.0 0.00 0.00 0.00 84 1013.0
20260506232450 54 0.0 0.0 0.00 0.00 0.00 84 1012.8
20260506230450 54 0.0 0.0 0.00 0.00 0.00 84 1012.9
20260506224449 55 0.0 0.0 0.00 0.00 0.00 84 1012.9
20260506222449 55 0.0 0.0 0.00 0.00 0.00 83 1013.0
20260506220449 54 0.0 0.0 0.00 0.00 0.00 84 1012.8
20260506214449 55 0.0 0.0 0.00 0.00 0.00 83 1012.7
20260506212448 55 0.0 0.0 0.00 0.00 0.00 83 1012.8
20260506210448 54 0.0 0.0 0.00 0.00 0.00 84 1012.9
20260506204447 55 0.0 0.0 0.00 0.00 0.00 82 1012.7
20260506202447 55 0.0 0.0 0.00 0.00 0.00 81 1012.8
20260506200447 55 0.0 0.0 0.00 0.00 0.00 81 1012.5
20260506194447 56 0.0 0.0 0.00 0.00 0.00 84 1012.4
20260506192446 56 0.0 0.0 0.00 0.00 0.00 80 1012.0
20260506190446 56 0.0 0.0 0.00 0.00 0.00 81 1011.7
20260506184446 56 0.0 0.0 0.00 0.00 0.00 79 1011.3
20260506182445 56 0.0 0.0 0.00 0.00 0.00 83 1011.0
20260506180446 55 0.0 0.0 0.00 0.00 0.00 87 1010.9
20260506174445 54 0.0 0.0 0.00 0.00 0.00 87 1010.7
20260506172444 55 0.0 0.0 0.00 0.00 0.00 83 1010.4
20260506170444 55 0.0 0.0 0.00 0.00 0.00 82 1010.9
20260506164444 59 0.0 0.0 0.00 0.00 0.00 66 1008.8
20260506162443 63 0.0 0.0 0.00 0.00 0.00 61 1009.1
20260506160444 65 0.0 0.0 0.00 0.00 0.00 74 1008.4
20260506154443 65 0.0 0.0 0.00 0.00 0.00 73 1008.3
20260506152443 67 0.0 0.0 0.00 0.00 0.00 69 1008.3
20260506150443 66 0.0 0.0 0.00 0.00 0.00 70 1008.7
20260506144442 66 0.0 0.0 0.00 0.00 0.00 72 1009.1
20260506142442 66 0.0 0.0 0.00 0.00 0.00 71 1009.2
20260506140442 65 0.0 0.0 0.00 0.00 0.00 71 1009.6
20260506134441 66 0.0 0.0 0.00 0.00 0.00 70 1009.7
20260506132441 67 0.0 0.0 0.00 0.00 0.00 66 1009.9
20260506130441 67 0.0 0.0 0.00 0.00 0.00 74 1010.1
20260506124440 65 0.0 0.0 0.00 0.00 0.00 77 1010.3
20260506122441 63 0.0 0.0 0.00 0.00 0.00 78 1010.6
20260506120440 62 0.0 0.0 0.00 0.00 0.00 82 1010.9
20260506114440 62 0.0 0.0 0.00 0.00 0.00 82 1010.9
20260506112439 60 0.0 0.0 0.00 0.00 0.00 84 1010.9
20260506110439 59 0.0 0.0 0.00 0.00 0.00 87 1011.1
20260506104439 59 0.0 0.0 0.00 0.00 0.00 88 1010.4
20260506102438 58 0.0 0.0 0.00 0.00 0.00 90 1011.3
20260506100440 57 0.0 0.0 0.00 0.00 0.00 94 1011.5
20260506094438 56 0.0 0.0 0.00 0.00 0.00 94 1011.3
20260506092438 56 0.0 0.0 0.00 0.00 0.00 95 1011.1
20260506090437 57 0.0 0.0 0.00 0.00 0.00 90 1011.4
20260506084437 57 0.0 0.0 0.00 0.00 0.00 91 1011.1
20260506082437 57 0.0 0.0 0.00 0.00 0.00 94 1011.1
20260506080437 57 0.0 0.0 0.00 0.00 0.00 96 1011.2
20260506072436 57 0.0 0.0 0.00 0.00 0.00 96 1011.3
20260506070435 56 0.0 0.0 0.00 0.00 0.00 99 1011.6